This demonstration page uses our WeatherBlox Daily Observations layout. Learn more.

Left ArrowRight Arrow

39.51506, -84.39828

Hourly Observations for May 1, 2016

Temp ( °F °C ) Dew Point ( °F °C ) Humidity (%) Winds ( mph kmh ) Pressure ( in mb ) Visibility ( mi km ) Precip ( " mm )
12:15 am 00:15 Cloudy 61 16 55 12.8 81 81 undefined N/A 29.88 1012 7 11.26538 N/A
12:35 am 00:35 Cloudy with Light Rain 61 16 55 12.8 81 81 N N/A 29.88 1012 10 16.0934 N/A
12:55 am 00:55 Cloudy with Rain 61 16 55 13 83 83 undefined N/A 29.88 1012 7 11.26538 N/A
1:15 am 01:15 Cloudy with Light Rain 62 16.6 56 13.6 83 83 undefined N/A 29.88 1012 7 11.26538 N/A
1:35 am 01:35 Cloudy with Drizzle 62 16.6 56 13.6 83 83 undefined N/A 29.88 1012 7 11.26538 N/A
1:55 am 01:55 Cloudy with Light Rain 62 16.6 56 13.6 83 83 undefined N/A 29.88 1012 7 11.26538 N/A
2:15 am 02:15 Cloudy with Light Rain 62 16.6 56 13.6 83 83 undefined N/A 29.88 1012 5 8.0467 N/A
2:35 am 02:35 Cloudy with Light Rain 62 16.4 56 13.5 83 83 SW 5 7 29.88 1012 5 8.0467 N/A
2:55 am 02:55 Cloudy with Rain 61 16 56 13.1 83 83 undefined N/A 29.88 1012 4 6.43736 N/A
3:15 am 03:15 Cloudy with Light Rain 62 16.6 57 13.7 83 83 undefined N/A 29.85 1011 5 8.0467 N/A
3:35 am 03:35 Mostly Cloudy 62 16.6 57 13.7 83 83 undefined N/A 29.85 1011 7 11.26538 N/A
3:55 am 03:55 Mostly Cloudy 62 16.6 57 13.7 83 83 undefined N/A 29.85 1011 7 11.26538 N/A
4:15 am 04:15 Partly Cloudy 61 16 56 13.1 83 83 undefined N/A 29.88 1012 7 11.26538 N/A
4:35 am 04:35 Mostly Cloudy 62 16.6 57 13.7 83 83 undefined N/A 29.88 1012 7 11.26538 N/A
4:55 am 04:55 Cloudy 62 16.6 57 13.7 83 83 undefined N/A 29.85 1011 7 11.26538 N/A
5:15 am 05:15 Cloudy with Haze 62 16.6 57 13.7 83 83 undefined N/A 29.88 1012 5 8.0467 N/A
5:35 am 05:35 Cloudy with Haze 62 16.6 57 13.7 83 83 undefined N/A 29.88 1012 5 8.0467 N/A
5:55 am 05:55 Cloudy with Haze 62 16.6 57 13.7 83 83 undefined N/A 29.88 1012 5 8.0467 N/A
6:15 am 06:15 Cloudy with Haze 62 16.6 57 13.7 83 83 undefined N/A 29.88 1012 5 8.0467 N/A
6:35 am 06:35 Cloudy with Haze 62 16.6 57 13.7 83 83 undefined N/A 29.88 1012 4 6.43736 N/A
6:55 am 06:55 Cloudy with Haze 62 16.6 57 13.7 83 83 undefined N/A 29.88 1012 3 4.82802 N/A
7:15 am 07:15 Mostly Cloudy with Haze 62 16.6 57 13.7 83 83 N N/A 29.88 1012 2 3.21868 N/A
7:35 am 07:35 Cloudy with Haze 62 16.6 57 13.8 84 84 N N/A 29.88 1012 2 3.21868 N/A
7:55 am 07:55 Cloudy with Haze 62 16.6 57 13.8 84 84 undefined N/A 29.88 1012 1.5 2.41401 N/A
8:15 am 08:15 Cloudy with Haze 62 16.8 57 14 84 84 N N/A 29.91 1013 2.5 4.02335 N/A
8:35 am 08:35 Cloudy with Haze 62 16.8 57 14 84 84 undefined N/A 29.91 1013 3 4.82802 N/A
8:55 am 08:55 Cloudy with Haze 64 17.6 59 14.8 84 84 undefined N/A 29.91 1013 5 8.0467 N/A
9:15 am 09:15 Cloudy 64 18 59 14.8 82 82 undefined N/A 29.91 1013 7 11.26538 N/A
9:35 am 09:35 Cloudy 66 18.7 60 15.3 81 81 undefined N/A 29.91 1013 10 16.0934 N/A
9:55 am 09:55 Cloudy 69 20.8 63 17 79 79 WSW 3 6 29.91 1013 10 16.0934 N/A
10:15 am 10:15 Cloudy 69 20.8 62 16.7 77 77 WSW 3 6 29.91 1013 10 16.0934 N/A
10:35 am 10:35 Cloudy 69 20.8 61 16.1 75 75 WSW 5 7 29.91 1013 10 16.0934 N/A
10:55 am 10:55 Cloudy 69 20.8 61 15.9 74 74 W 5 7 29.91 1013 10 16.0934 N/A
11:15 am 11:15 Cloudy 69 20.8 61 16 74 74 W 5 7 29.91 1013 10 16.0934 N/A
11:35 am 11:35 Mostly Cloudy 70 20.9 59 14.8 68 68 WNW 3 6 29.91 1013 10 16.0934 N/A
11:55 am 11:55 Partly Cloudy 73 23 60 15.3 62 62 W 8 13 29.91 1013 10 16.0934 N/A
12:15 pm 12:15 Partly Cloudy 74 23.3 61 16 64 64 WSW 5 7 29.91 1013 10 16.0934 N/A
12:35 pm 12:35 Partly Cloudy 74 23.6 59 15.1 59 59 WSW 7 11 29.91 1013 10 16.0934 N/A
12:55 pm 12:55 Partly Cloudy 74 23.6 58 14.3 56 56 W 5 7 29.91 1013 10 16.0934 N/A
1:15 pm 13:15 Partly Cloudy 74 23.6 56 13.1 52 52 N N/A 29.91 1013 10 16.0934 N/A
1:35 pm 13:35 Partly Cloudy 74 23.6 54 12 48 48 undefined N/A 29.91 1013 10 16.0934 N/A
1:55 pm 13:55 Partly Cloudy 74 23.6 53 11.7 47 47 undefined N/A 29.91 1013 10 16.0934 N/A
2:15 pm 14:15 Partly Cloudy 77 24.9 54 12 45 45 undefined N/A 29.91 1013 10 16.0934 N/A
2:35 pm 14:35 Sunny 77 25.1 53 11.8 44 44 undefined N/A 29.91 1013 10 16.0934 N/A
2:55 pm 14:55 Partly Cloudy 77 25.1 53 11.6 43 43 undefined N/A 29.91 1013 10 16.0934 N/A
3:15 pm 15:15 Partly Cloudy 77 25.1 52 11 41 41 undefined N/A 29.91 1013 10 16.0934 N/A
3:35 pm 15:35 Partly Cloudy 77 25.1 51 10.6 40 40 undefined N/A 29.88 1012 10 16.0934 N/A
3:55 pm 15:55 Partly Cloudy 79 25.9 51 10.7 39 39 undefined N/A 29.88 1012 10 16.0934 N/A
4:15 pm 16:15 Sunny 80 26.4 53 11.6 40 40 undefined N/A 29.88 1012 10 16.0934 N/A
4:35 pm 16:35 Sunny 80 26.5 51 10.6 37 37 WSW 3 6 29.88 1012 10 16.0934 N/A
4:55 pm 16:55 Partly Cloudy 80 26.5 52 10.9 38 38 W 6 9 29.85 1011 10 16.0934 N/A
5:15 pm 17:15 Partly Cloudy 80 26.5 52 10.9 38 38 undefined N/A 29.88 1012 10 16.0934 N/A
5:35 pm 17:35 Partly Cloudy 80 26.5 49 9.7 35 35 undefined N/A 29.88 1012 10 16.0934 N/A
5:55 pm 17:55 Sunny 78 25.7 51 10.3 38 38 undefined N/A 29.88 1012 10 16.0934 N/A
6:15 pm 18:15 Sunny 80 26.5 51 10.5 37 37 N N/A 29.88 1012 10 16.0934 N/A
6:35 pm 18:35 Sunny 77 25.1 49 9.2 37 37 N N/A 29.85 1011 10 16.0934 N/A
6:55 pm 18:55 Partly Cloudy with Drizzle 77 25.1 53 11.5 43 43 undefined N/A 29.85 1011 10 16.0934 N/A
7:15 pm 19:15 Partly Cloudy 77 25.1 55 12.6 46 46 undefined N/A 29.85 1011 10 16.0934 N/A
7:35 pm 19:35 Sunny 74 23.6 54 12.3 49 49 undefined N/A 29.85 1011 10 16.0934 N/A
7:55 pm 19:55 Cloudy with Light Rain 60 15.3 54 12.2 82 82 undefined N/A 29.91 1013 4 6.43736 N/A
8:15 pm 20:15 Mostly Cloudy 74 23.6 55 12.7 51 51 undefined N/A 29.85 1011 10 16.0934 N/A
8:35 pm 20:35 Cloudy with Rain 72 22.4 56 13.5 57 57 WSW 28 44 29.91 1013 10 16.0934 N/A
8:55 pm 20:55 Cloudy with Light Rain 62 16.6 54 12.3 76 76 W 15 24 29.91 1013 7 11.26538 N/A
9:15 pm 21:15 Cloudy with Light Rain 62 16.6 54 12 74 74 E 3 6 29.88 1012 10 16.0934 N/A
9:35 pm 21:35 Cloudy with Light Rain 62 16.6 55 12.7 78 78 N N/A 29.88 1012 10 16.0934 N/A
9:55 pm 21:55 Mostly Cloudy 62 16.6 56 13.1 80 80 N N/A 29.85 1011 10 16.0934 N/A
10:15 pm 22:15 Partly Cloudy 60 15.3 54 12.1 81 81 N N/A 29.85 1011 7 11.26538 N/A
10:35 pm 22:35 Clear 60 15.3 54 12.3 82 82 SW 3 6 29.85 1011 7 11.26538 N/A
10:55 pm 22:55 Clear 60 15.3 55 12.5 84 84 WSW 3 6 29.85 1011 7 11.26538 N/A
11:15 pm 23:15 Clear 60 15.3 55 12.5 84 84 N N/A 29.85 1011 7 11.26538 N/A
11:35 pm 23:35 Clear 60 15.3 55 12.5 84 84 W 3 6 29.85 1011 7 11.26538 N/A
11:55 pm 23:55 Partly Cloudy 61 16 56 13.1 83 83 N N/A 29.85 1011 7 11.26538 N/A

Powered by AerisWeather